Tracking 35334 objects as of 12-Sep-2026
HD Live streaming from Space Station
objects crossing your sky now

SL-8 R/B

Track SL-8 R/B now!
10-day predictions


NORAD ID: 7434
Int'l Code: 1974-071B
Launch date: September 11, 1974
Source: Commonwealth of Independent States (former USSR) (CIS)
Launch site: PLESETSK MISSILE AND SPACE COMPLEX (PKMTR)

Note: This is a ROCKET BODY
Your satellite tracking list
Your tracking list is empty




NASA's NSSDC Master Catalog

Two Line Element Set (TLE):
1 07434U 74071B   26255.10955136  .00000150  00000-0  57761-4 0  9993
2 07434  74.0454 133.0367 0021301 288.5089  71.3750 14.38265074721074
Source of the keplerian elements: AFSPC